owner,sensor,date,latitude,longitude,vertical_datum,sea_water_temperature,qcFlag 
TABS,ioos:station:wmo:42050:1,2003-09-01T00:00:00Z,28.8425,-94.2433,-2.0,29.1,11111222 
TABS,ioos:station:wmo:42050:1,2003-09-01T00:30:00Z,28.8425,-94.2433,-2.0,29.09,11111222 
TABS,ioos:station:wmo:42050:1,2003-09-01T01:00:00Z,28.8425,-94.2433,-2.0,29.07,11111222 
TABS,ioos:station:wmo:42050:1,2003-09-01T01:30:00Z,28.8425,-94.2433,-2.0,29.02,11111222 
TABS,ioos:station:wmo:42050:1,2003-09-01T02:00:00Z,28.8425,-94.2433,-2.0,29.04,11111222 
TABS,ioos:station:wmo:42050:1,2003-09-01T02:30:00Z,28.8425,-94.2433,-2.0,29.07,11111222 
TABS,ioos:station:wmo:42050:1,2003-09-01T03:00:00Z,28.8425,-94.2433,-2.0,29.08,11111222 
TABS,ioos:station:wmo:42050:1,2003-09-01T03:30:00Z,28.8425,-94.2433,-2.0,29.1,11111222 
TABS,ioos:station:wmo:42050:1,2003-09-01T04:00:00Z,28.8425,-94.2433,-2.0,29.09,11111222 
TABS,ioos:station:wmo:42050:1,2003-09-01T04:30:00Z,28.8425,-94.2433,-2.0,29.06,11111222 
TABS,ioos:station:wmo:42050:1,2003-09-01T05:00:00Z,28.8425,-94.2433,-2.0,29.03,11111222 
TABS,ioos:station:wmo:42050:1,2003-09-01T05:30:00Z,28.8425,-94.2433,-2.0,29.0,11111222 
TABS,ioos:station:wmo:42050:1,2003-09-01T06:00:00Z,28.8425,-94.2433,-2.0,28.98,11111222 
TABS,ioos:station:wmo:42050:1,2003-09-01T06:30:00Z,28.8425,-94.2433,-2.0,28.96,11111222 
TABS,ioos:station:wmo:42050:1,2003-09-01T07:00:00Z,28.8425,-94.2433,-2.0,28.94,11111222 
TABS,ioos:station:wmo:42050:1,2003-09-01T07:30:00Z,28.8425,-94.2433,-2.0,28.93,11111222 
TABS,ioos:station:wmo:42050:1,2003-09-01T08:00:00Z,28.8425,-94.2433,-2.0,28.91,11111222 
TABS,ioos:station:wmo:42050:1,2003-09-01T08:30:00Z,28.8425,-94.2433,-2.0,28.91,11111222 
TABS,ioos:station:wmo:42050:1,2003-09-01T09:00:00Z,28.8425,-94.2433,-2.0,28.9,11111222 
TABS,ioos:station:wmo:42050:1,2003-09-01T09:30:00Z,28.8425,-94.2433,-2.0,28.87,11111222 
TABS,ioos:station:wmo:42050:1,2003-09-01T10:00:00Z,28.8425,-94.2433,-2.0,28.87,11111222 
TABS,ioos:station:wmo:42050:1,2003-09-01T10:30:00Z,28.8425,-94.2433,-2.0,28.88,11111222 
TABS,ioos:station:wmo:42050:1,2003-09-01T11:00:00Z,28.8425,-94.2433,-2.0,28.87,11111222 
TABS,ioos:station:wmo:42050:1,2003-09-01T11:30:00Z,28.8425,-94.2433,-2.0,28.88,11111222 
TABS,ioos:station:wmo:42050:1,2003-09-01T12:00:00Z,28.8425,-94.2433,-2.0,28.86,11111222 
TABS,ioos:station:wmo:42050:1,2003-09-01T12:30:00Z,28.8425,-94.2433,-2.0,28.88,11111222 
TABS,ioos:station:wmo:42050:1,2003-09-01T13:00:00Z,28.8425,-94.2433,-2.0,28.88,11111222 
TABS,ioos:station:wmo:42050:1,2003-09-01T13:30:00Z,28.8425,-94.2433,-2.0,28.87,11111222 
TABS,ioos:station:wmo:42050:1,2003-09-01T14:00:00Z,28.8425,-94.2433,-2.0,28.9,11111222 
TABS,ioos:station:wmo:42050:1,2003-09-01T14:30:00Z,28.8425,-94.2433,-2.0,29.06,11111222 
TABS,ioos:station:wmo:42050:1,2003-09-01T15:00:00Z,28.8425,-94.2433,-2.0,29.08,11111222 
TABS,ioos:station:wmo:42050:1,2003-09-01T15:30:00Z,28.8425,-94.2433,-2.0,29.08,11111222 
TABS,ioos:station:wmo:42050:1,2003-09-01T16:00:00Z,28.8425,-94.2433,-2.0,29.13,11111222 
TABS,ioos:station:wmo:42050:1,2003-09-01T16:30:00Z,28.8425,-94.2433,-2.0,29.16,11111222 
TABS,ioos:station:wmo:42050:1,2003-09-01T17:00:00Z,28.8425,-94.2433,-2.0,29.18,11111222 
TABS,ioos:station:wmo:42050:1,2003-09-01T17:30:00Z,28.8425,-94.2433,-2.0,29.22,11111222 
TABS,ioos:station:wmo:42050:1,2003-09-01T18:00:00Z,28.8425,-94.2433,-2.0,29.21,11111222 
TABS,ioos:station:wmo:42050:1,2003-09-01T18:30:00Z,28.8425,-94.2433,-2.0,29.2,11111222 
TABS,ioos:station:wmo:42050:1,2003-09-01T19:00:00Z,28.8425,-94.2433,-2.0,29.2,11111222 
TABS,ioos:station:wmo:42050:1,2003-09-01T19:30:00Z,28.8425,-94.2433,-2.0,29.2,11111222 
TABS,ioos:station:wmo:42050:1,2003-09-01T20:00:00Z,28.8425,-94.2433,-2.0,29.24,11111222 
TABS,ioos:station:wmo:42050:1,2003-09-01T20:30:00Z,28.8425,-94.2433,-2.0,29.24,11111222 
TABS,ioos:station:wmo:42050:1,2003-09-01T21:00:00Z,28.8425,-94.2433,-2.0,29.25,11111222 
TABS,ioos:station:wmo:42050:1,2003-09-01T21:30:00Z,28.8425,-94.2433,-2.0,29.27,11111222 
TABS,ioos:station:wmo:42050:1,2003-09-01T22:00:00Z,28.8425,-94.2433,-2.0,29.27,11111222 
TABS,ioos:station:wmo:42050:1,2003-09-01T22:30:00Z,28.8425,-94.2433,-2.0,29.29,11111222 
TABS,ioos:station:wmo:42050:1,2003-09-01T23:00:00Z,28.8425,-94.2433,-2.0,29.3,11111222 
TABS,ioos:station:wmo:42050:1,2003-09-01T23:30:00Z,28.8425,-94.2433,-2.0,29.24,11111222 
TABS,ioos:station:wmo:42050:1,2003-09-02T00:00:00Z,28.8425,-94.2433,-2.0,29.27,11111222 
TABS,ioos:station:wmo:42050:1,2003-09-02T00:30:00Z,28.8425,-94.2433,-2.0,29.25,11111222 
TABS,ioos:station:wmo:42050:1,2003-09-02T01:00:00Z,28.8425,-94.2433,-2.0,29.22,11111222 
TABS,ioos:station:wmo:42050:1,2003-09-02T01:30:00Z,28.8425,-94.2433,-2.0,29.21,11111222 
TABS,ioos:station:wmo:42050:1,2003-09-02T02:00:00Z,28.8425,-94.2433,-2.0,29.21,11111222 
TABS,ioos:station:wmo:42050:1,2003-09-02T02:30:00Z,28.8425,-94.2433,-2.0,29.2,11111222 
TABS,ioos:station:wmo:42050:1,2003-09-02T03:00:00Z,28.8425,-94.2433,-2.0,29.2,11111222 
TABS,ioos:station:wmo:42050:1,2003-09-02T03:30:00Z,28.8425,-94.2433,-2.0,29.17,11111222 
TABS,ioos:station:wmo:42050:1,2003-09-02T04:00:00Z,28.8425,-94.2433,-2.0,29.15,11111222 
TABS,ioos:station:wmo:42050:1,2003-09-02T04:30:00Z,28.8425,-94.2433,-2.0,29.12,11111222 
TABS,ioos:station:wmo:42050:1,2003-09-02T05:00:00Z,28.8425,-94.2433,-2.0,29.11,11111222 
TABS,ioos:station:wmo:42050:1,2003-09-02T05:30:00Z,28.8425,-94.2433,-2.0,29.09,11111222 
TABS,ioos:station:wmo:42050:1,2003-09-02T06:00:00Z,28.8425,-94.2433,-2.0,29.08,11111222 
TABS,ioos:station:wmo:42050:1,2003-09-02T06:30:00Z,28.8425,-94.2433,-2.0,29.08,11111222 
TABS,ioos:station:wmo:42050:1,2003-09-02T07:00:00Z,28.8425,-94.2433,-2.0,29.07,11111222 
TABS,ioos:station:wmo:42050:1,2003-09-02T07:30:00Z,28.8425,-94.2433,-2.0,29.07,11111222 
TABS,ioos:station:wmo:42050:1,2003-09-02T08:00:00Z,28.8425,-94.2433,-2.0,29.1,11111222 
TABS,ioos:station:wmo:42050:1,2003-09-02T08:30:00Z,28.8425,-94.2433,-2.0,29.13,11111222 
TABS,ioos:station:wmo:42050:1,2003-09-02T09:00:00Z,28.8425,-94.2433,-2.0,29.14,11111222 
TABS,ioos:station:wmo:42050:1,2003-09-02T09:30:00Z,28.8425,-94.2433,-2.0,29.14,11111222 
TABS,ioos:station:wmo:42050:1,2003-09-02T10:00:00Z,28.8425,-94.2433,-2.0,29.15,11111222 
TABS,ioos:station:wmo:42050:1,2003-09-02T10:30:00Z,28.8425,-94.2433,-2.0,29.07,11111222 
TABS,ioos:station:wmo:42050:1,2003-09-03T15:30:00Z,28.8425,-94.2433,-2.0,29.64,11111222 
TABS,ioos:station:wmo:42050:1,2003-09-03T16:00:00Z,28.8425,-94.2433,-2.0,29.83,11111222 
TABS,ioos:station:wmo:42050:1,2003-09-03T16:30:00Z,28.8425,-94.2433,-2.0,29.5,11111222 
TABS,ioos:station:wmo:42050:1,2003-09-03T17:00:00Z,28.8425,-94.2433,-2.0,29.43,11111222 
TABS,ioos:station:wmo:42050:1,2003-09-03T17:30:00Z,28.8425,-94.2433,-2.0,29.44,11111222 
TABS,ioos:station:wmo:42050:1,2003-09-03T18:00:00Z,28.8425,-94.2433,-2.0,29.49,11111222 
TABS,ioos:station:wmo:42050:1,2003-09-03T18:30:00Z,28.8425,-94.2433,-2.0,29.52,11111222 
TABS,ioos:station:wmo:42050:1,2003-09-03T19:00:00Z,28.8425,-94.2433,-2.0,29.56,11111222 
TABS,ioos:station:wmo:42050:1,2003-09-03T19:30:00Z,28.8425,-94.2433,-2.0,29.67,11111222 
TABS,ioos:station:wmo:42050:1,2003-09-03T20:00:00Z,28.8425,-94.2433,-2.0,29.75,11111222 
TABS,ioos:station:wmo:42050:1,2003-09-03T20:30:00Z,28.8425,-94.2433,-2.0,29.82,11111222 
TABS,ioos:station:wmo:42050:1,2003-09-03T21:00:00Z,28.8425,-94.2433,-2.0,29.86,11111222 
TABS,ioos:station:wmo:42050:1,2003-09-03T21:30:00Z,28.8425,-94.2433,-2.0,29.71,11111222 
TABS,ioos:station:wmo:42050:1,2003-09-03T22:00:00Z,28.8425,-94.2433,-2.0,29.72,11111222 
TABS,ioos:station:wmo:42050:1,2003-09-03T22:30:00Z,28.8425,-94.2433,-2.0,29.79,11111222 
TABS,ioos:station:wmo:42050:1,2003-09-03T23:00:00Z,28.8425,-94.2433,-2.0,29.88,11111222 
TABS,ioos:station:wmo:42050:1,2003-09-03T23:30:00Z,28.8425,-94.2433,-2.0,29.76,11111222 
TABS,ioos:station:wmo:42050:1,2003-09-04T00:00:00Z,28.8425,-94.2433,-2.0,29.77,11111222 
TABS,ioos:station:wmo:42050:1,2003-09-04T00:30:00Z,28.8425,-94.2433,-2.0,30.05,11111222 
TABS,ioos:station:wmo:42050:1,2003-09-04T01:00:00Z,28.8425,-94.2433,-2.0,29.85,11111222 
TABS,ioos:station:wmo:42050:1,2003-09-04T01:30:00Z,28.8425,-94.2433,-2.0,29.74,11111222 
TABS,ioos:station:wmo:42050:1,2003-09-04T02:00:00Z,28.8425,-94.2433,-2.0,29.81,11111222 
TABS,ioos:station:wmo:42050:1,2003-09-04T02:30:00Z,28.8425,-94.2433,-2.0,29.9,11111222 
TABS,ioos:station:wmo:42050:1,2003-09-04T03:00:00Z,28.8425,-94.2433,-2.0,29.9,11111222 
TABS,ioos:station:wmo:42050:1,2003-09-04T03:30:00Z,28.8425,-94.2433,-2.0,29.88,11111222 
TABS,ioos:station:wmo:42050:1,2003-09-04T04:00:00Z,28.8425,-94.2433,-2.0,29.92,11111222 
TABS,ioos:station:wmo:42050:1,2003-09-04T04:30:00Z,28.8425,-94.2433,-2.0,29.97,11111222 
TABS,ioos:station:wmo:42050:1,2003-09-04T05:00:00Z,28.8425,-94.2433,-2.0,30.12,11111222 
TABS,ioos:station:wmo:42050:1,2003-09-04T05:30:00Z,28.8425,-94.2433,-2.0,30.2,11111222 
TABS,ioos:station:wmo:42050:1,2003-09-04T06:00:00Z,28.8425,-94.2433,-2.0,30.16,11111222 
TABS,ioos:station:wmo:42050:1,2003-09-04T06:30:00Z,28.8425,-94.2433,-2.0,29.83,11111222 
TABS,ioos:station:wmo:42050:1,2003-09-04T07:00:00Z,28.8425,-94.2433,-2.0,29.73,11111222 
TABS,ioos:station:wmo:42050:1,2003-09-04T07:30:00Z,28.8425,-94.2433,-2.0,29.64,11111222 
TABS,ioos:station:wmo:42050:1,2003-09-04T08:00:00Z,28.8425,-94.2433,-2.0,29.74,11111222 
TABS,ioos:station:wmo:42050:1,2003-09-04T08:30:00Z,28.8425,-94.2433,-2.0,29.74,11111222 
TABS,ioos:station:wmo:42050:1,2003-09-04T09:00:00Z,28.8425,-94.2433,-2.0,29.79,11111222 
TABS,ioos:station:wmo:42050:1,2003-09-04T09:30:00Z,28.8425,-94.2433,-2.0,29.71,11111222 
TABS,ioos:station:wmo:42050:1,2003-09-04T10:00:00Z,28.8425,-94.2433,-2.0,29.5,11111222 
TABS,ioos:station:wmo:42050:1,2003-09-04T10:30:00Z,28.8425,-94.2433,-2.0,29.39,11111222 
TABS,ioos:station:wmo:42050:1,2003-09-04T11:00:00Z,28.8425,-94.2433,-2.0,29.41,11111222 
TABS,ioos:station:wmo:42050:1,2003-09-04T11:30:00Z,28.8425,-94.2433,-2.0,29.42,11111222 
TABS,ioos:station:wmo:42050:1,2003-09-04T12:00:00Z,28.8425,-94.2433,-2.0,29.47,11111222 
TABS,ioos:station:wmo:42050:1,2003-09-04T12:30:00Z,28.8425,-94.2433,-2.0,29.55,11111222 
TABS,ioos:station:wmo:42050:1,2003-09-04T13:00:00Z,28.8425,-94.2433,-2.0,29.55,11111222 
TABS,ioos:station:wmo:42050:1,2003-09-04T13:30:00Z,28.8425,-94.2433,-2.0,29.48,11111222 
TABS,ioos:station:wmo:42050:1,2003-09-04T14:00:00Z,28.8425,-94.2433,-2.0,29.51,11111222 
TABS,ioos:station:wmo:42050:1,2003-09-04T14:30:00Z,28.8425,-94.2433,-2.0,29.47,11111222 
TABS,ioos:station:wmo:42050:1,2003-09-04T15:00:00Z,28.8425,-94.2433,-2.0,29.5,11111222 
TABS,ioos:station:wmo:42050:1,2003-09-04T15:30:00Z,28.8425,-94.2433,-2.0,29.52,11111222 
TABS,ioos:station:wmo:42050:1,2003-09-04T16:00:00Z,28.8425,-94.2433,-2.0,29.59,11111222 
TABS,ioos:station:wmo:42050:1,2003-09-04T16:30:00Z,28.8425,-94.2433,-2.0,29.6,11111222 
TABS,ioos:station:wmo:42050:1,2003-09-04T17:00:00Z,28.8425,-94.2433,-2.0,29.5,11111222 
TABS,ioos:station:wmo:42050:1,2003-09-04T17:30:00Z,28.8425,-94.2433,-2.0,29.57,11111222 
TABS,ioos:station:wmo:42050:1,2003-09-04T18:00:00Z,28.8425,-94.2433,-2.0,29.6,11111222 
TABS,ioos:station:wmo:42050:1,2003-09-04T18:30:00Z,28.8425,-94.2433,-2.0,29.67,11111222 
TABS,ioos:station:wmo:42050:1,2003-09-04T19:00:00Z,28.8425,-94.2433,-2.0,29.8,11111222 
TABS,ioos:station:wmo:42050:1,2003-09-04T19:30:00Z,28.8425,-94.2433,-2.0,29.88,11111222 
TABS,ioos:station:wmo:42050:1,2003-09-04T20:00:00Z,28.8425,-94.2433,-2.0,29.97,11111222 
TABS,ioos:station:wmo:42050:1,2003-09-04T20:30:00Z,28.8425,-94.2433,-2.0,30.05,11111222 
TABS,ioos:station:wmo:42050:1,2003-09-04T21:00:00Z,28.8425,-94.2433,-2.0,30.21,11111222 
TABS,ioos:station:wmo:42050:1,2003-09-04T21:30:00Z,28.8425,-94.2433,-2.0,30.26,11111222 
TABS,ioos:station:wmo:42050:1,2003-09-04T22:00:00Z,28.8425,-94.2433,-2.0,30.08,11111222 
TABS,ioos:station:wmo:42050:1,2003-09-04T22:30:00Z,28.8425,-94.2433,-2.0,29.89,11111222 
TABS,ioos:station:wmo:42050:1,2003-09-04T23:00:00Z,28.8425,-94.2433,-2.0,30.0,11111222 
TABS,ioos:station:wmo:42050:1,2003-09-04T23:30:00Z,28.8425,-94.2433,-2.0,30.1,11111222 
TABS,ioos:station:wmo:42050:1,2003-09-05T00:00:00Z,28.8425,-94.2433,-2.0,30.0,11111222 
TABS,ioos:station:wmo:42050:1,2003-09-05T00:30:00Z,28.8425,-94.2433,-2.0,29.76,11111222 
TABS,ioos:station:wmo:42050:1,2003-09-05T01:00:00Z,28.8425,-94.2433,-2.0,29.63,11111222 
TABS,ioos:station:wmo:42050:1,2003-09-05T01:30:00Z,28.8425,-94.2433,-2.0,29.64,11111222 
TABS,ioos:station:wmo:42050:1,2003-09-05T02:00:00Z,28.8425,-94.2433,-2.0,29.61,11111222 
TABS,ioos:station:wmo:42050:1,2003-09-05T02:30:00Z,28.8425,-94.2433,-2.0,29.59,11111222 
TABS,ioos:station:wmo:42050:1,2003-09-05T03:00:00Z,28.8425,-94.2433,-2.0,29.64,11111222 
TABS,ioos:station:wmo:42050:1,2003-09-05T03:30:00Z,28.8425,-94.2433,-2.0,29.62,11111222 
TABS,ioos:station:wmo:42050:1,2003-09-05T04:00:00Z,28.8425,-94.2433,-2.0,29.5,11111222 
TABS,ioos:station:wmo:42050:1,2003-09-05T04:30:00Z,28.8425,-94.2433,-2.0,29.44,11111222 
TABS,ioos:station:wmo:42050:1,2003-09-05T05:00:00Z,28.8425,-94.2433,-2.0,29.44,11111222 
TABS,ioos:station:wmo:42050:1,2003-09-05T05:30:00Z,28.8425,-94.2433,-2.0,29.4,11111222 
TABS,ioos:station:wmo:42050:1,2003-09-05T06:00:00Z,28.8425,-94.2433,-2.0,29.38,11111222 
TABS,ioos:station:wmo:42050:1,2003-09-05T06:30:00Z,28.8425,-94.2433,-2.0,29.37,11111222 
TABS,ioos:station:wmo:42050:1,2003-09-05T07:00:00Z,28.8425,-94.2433,-2.0,29.36,11111222 
TABS,ioos:station:wmo:42050:1,2003-09-05T07:30:00Z,28.8425,-94.2433,-2.0,29.38,11111222 
TABS,ioos:station:wmo:42050:1,2003-09-05T08:00:00Z,28.8425,-94.2433,-2.0,29.44,11111222 
TABS,ioos:station:wmo:42050:1,2003-09-05T08:30:00Z,28.8425,-94.2433,-2.0,29.44,11111222 
TABS,ioos:station:wmo:42050:1,2003-09-05T09:00:00Z,28.8425,-94.2433,-2.0,29.46,11111222 
TABS,ioos:station:wmo:42050:1,2003-09-05T09:30:00Z,28.8425,-94.2433,-2.0,29.45,11111222 
TABS,ioos:station:wmo:42050:1,2003-09-05T10:00:00Z,28.8425,-94.2433,-2.0,29.44,11111222 
TABS,ioos:station:wmo:42050:1,2003-09-05T10:30:00Z,28.8425,-94.2433,-2.0,29.43,11111222 
TABS,ioos:station:wmo:42050:1,2003-09-05T11:00:00Z,28.8425,-94.2433,-2.0,29.44,11111222 
TABS,ioos:station:wmo:42050:1,2003-09-05T11:30:00Z,28.8425,-94.2433,-2.0,29.43,11111222 
TABS,ioos:station:wmo:42050:1,2003-09-05T12:00:00Z,28.8425,-94.2433,-2.0,29.43,11111222 
TABS,ioos:station:wmo:42050:1,2003-09-05T12:30:00Z,28.8425,-94.2433,-2.0,29.43,11111222 
TABS,ioos:station:wmo:42050:1,2003-09-05T13:00:00Z,28.8425,-94.2433,-2.0,29.43,11111222 
TABS,ioos:station:wmo:42050:1,2003-09-05T13:30:00Z,28.8425,-94.2433,-2.0,29.43,11111222 
TABS,ioos:station:wmo:42050:1,2003-09-05T14:00:00Z,28.8425,-94.2433,-2.0,29.43,11111222 
TABS,ioos:station:wmo:42050:1,2003-09-05T14:30:00Z,28.8425,-94.2433,-2.0,29.43,11111222 
TABS,ioos:station:wmo:42050:1,2003-09-05T15:00:00Z,28.8425,-94.2433,-2.0,29.43,11111222 
TABS,ioos:station:wmo:42050:1,2003-09-05T15:30:00Z,28.8425,-94.2433,-2.0,29.43,11111222 
TABS,ioos:station:wmo:42050:1,2003-09-05T16:00:00Z,28.8425,-94.2433,-2.0,29.45,11111222 
TABS,ioos:station:wmo:42050:1,2003-09-05T16:30:00Z,28.8425,-94.2433,-2.0,29.47,11111222 
TABS,ioos:station:wmo:42050:1,2003-09-05T17:00:00Z,28.8425,-94.2433,-2.0,29.48,11111222 
TABS,ioos:station:wmo:42050:1,2003-09-05T17:30:00Z,28.8425,-94.2433,-2.0,29.5,11111222 
TABS,ioos:station:wmo:42050:1,2003-09-05T18:00:00Z,28.8425,-94.2433,-2.0,29.48,11111222 
TABS,ioos:station:wmo:42050:1,2003-09-05T18:30:00Z,28.8425,-94.2433,-2.0,29.41,11111222 
TABS,ioos:station:wmo:42050:1,2003-09-05T19:00:00Z,28.8425,-94.2433,-2.0,29.38,11111222 
TABS,ioos:station:wmo:42050:1,2003-09-05T20:30:00Z,28.8425,-94.2433,-2.0,29.51,11111222 
TABS,ioos:station:wmo:42050:1,2003-09-05T21:00:00Z,28.8425,-94.2433,-2.0,29.53,11111222 
TABS,ioos:station:wmo:42050:1,2003-09-05T21:30:00Z,28.8425,-94.2433,-2.0,29.56,11111222 
TABS,ioos:station:wmo:42050:1,2003-09-05T22:00:00Z,28.8425,-94.2433,-2.0,29.56,11111222 
TABS,ioos:station:wmo:42050:1,2003-09-05T22:30:00Z,28.8425,-94.2433,-2.0,29.56,11111222 
TABS,ioos:station:wmo:42050:1,2003-09-05T23:00:00Z,28.8425,-94.2433,-2.0,29.55,11111222 
TABS,ioos:station:wmo:42050:1,2003-09-05T23:30:00Z,28.8425,-94.2433,-2.0,29.51,11111222 
TABS,ioos:station:wmo:42050:1,2003-09-06T00:00:00Z,28.8425,-94.2433,-2.0,29.48,11111222 
TABS,ioos:station:wmo:42050:1,2003-09-06T00:30:00Z,28.8425,-94.2433,-2.0,29.42,11111222 
TABS,ioos:station:wmo:42050:1,2003-09-06T01:00:00Z,28.8425,-94.2433,-2.0,29.37,11111222 
TABS,ioos:station:wmo:42050:1,2003-09-06T01:30:00Z,28.8425,-94.2433,-2.0,29.34,11111222 
TABS,ioos:station:wmo:42050:1,2003-09-06T02:00:00Z,28.8425,-94.2433,-2.0,29.34,11111222 
TABS,ioos:station:wmo:42050:1,2003-09-06T02:30:00Z,28.8425,-94.2433,-2.0,29.29,11111222 
TABS,ioos:station:wmo:42050:1,2003-09-06T03:00:00Z,28.8425,-94.2433,-2.0,29.25,11111222 
TABS,ioos:station:wmo:42050:1,2003-09-06T12:00:00Z,28.8425,-94.2433,-2.0,28.8,11111222 
TABS,ioos:station:wmo:42050:1,2003-09-07T07:30:00Z,28.8425,-94.2433,-2.0,28.78,11111222 
TABS,ioos:station:wmo:42050:1,2003-09-07T08:00:00Z,28.8425,-94.2433,-2.0,28.78,11111222 
TABS,ioos:station:wmo:42050:1,2003-09-07T09:00:00Z,28.8425,-94.2433,-2.0,28.8,11111222 
TABS,ioos:station:wmo:42050:1,2003-09-07T09:30:00Z,28.8425,-94.2433,-2.0,28.8,11111222 
TABS,ioos:station:wmo:42050:1,2003-09-07T10:00:00Z,28.8425,-94.2433,-2.0,28.8,11111222 
TABS,ioos:station:wmo:42050:1,2003-09-07T10:30:00Z,28.8425,-94.2433,-2.0,28.8,11111222 
TABS,ioos:station:wmo:42050:1,2003-09-07T11:00:00Z,28.8425,-94.2433,-2.0,28.8,11111222 
TABS,ioos:station:wmo:42050:1,2003-09-07T11:30:00Z,28.8425,-94.2433,-2.0,28.8,11111222 
TABS,ioos:station:wmo:42050:1,2003-09-07T12:00:00Z,28.8425,-94.2433,-2.0,28.8,11111222 
TABS,ioos:station:wmo:42050:1,2003-09-07T12:30:00Z,28.8425,-94.2433,-2.0,28.8,11111222 
TABS,ioos:station:wmo:42050:1,2003-09-07T16:00:00Z,28.8425,-94.2433,-2.0,28.74,11111222 
TABS,ioos:station:wmo:42050:1,2003-09-07T16:30:00Z,28.8425,-94.2433,-2.0,28.77,11111222 
TABS,ioos:station:wmo:42050:1,2003-09-07T17:00:00Z,28.8425,-94.2433,-2.0,28.81,11111222 
TABS,ioos:station:wmo:42050:1,2003-09-07T17:30:00Z,28.8425,-94.2433,-2.0,28.83,11111222 
TABS,ioos:station:wmo:42050:1,2003-09-07T19:00:00Z,28.8425,-94.2433,-2.0,28.93,11111222 
TABS,ioos:station:wmo:42050:1,2003-09-08T00:30:00Z,28.8425,-94.2433,-2.0,29.0,11111222 
TABS,ioos:station:wmo:42050:1,2003-09-08T01:00:00Z,28.8425,-94.2433,-2.0,29.0,11111222 
TABS,ioos:station:wmo:42050:1,2003-09-08T01:30:00Z,28.8425,-94.2433,-2.0,29.0,11111222 
TABS,ioos:station:wmo:42050:1,2003-09-08T02:00:00Z,28.8425,-94.2433,-2.0,29.0,11111222 
TABS,ioos:station:wmo:42050:1,2003-09-08T02:30:00Z,28.8425,-94.2433,-2.0,29.0,11111222 
TABS,ioos:station:wmo:42050:1,2003-09-08T03:00:00Z,28.8425,-94.2433,-2.0,29.0,11111222 
TABS,ioos:station:wmo:42050:1,2003-09-08T03:30:00Z,28.8425,-94.2433,-2.0,29.0,11111222 
TABS,ioos:station:wmo:42050:1,2003-09-08T04:00:00Z,28.8425,-94.2433,-2.0,29.0,11111222 
TABS,ioos:station:wmo:42050:1,2003-09-08T04:30:00Z,28.8425,-94.2433,-2.0,29.0,11111222 
TABS,ioos:station:wmo:42050:1,2003-09-08T05:00:00Z,28.8425,-94.2433,-2.0,29.0,11111222 
TABS,ioos:station:wmo:42050:1,2003-09-08T05:30:00Z,28.8425,-94.2433,-2.0,29.0,11111222 
TABS,ioos:station:wmo:42050:1,2003-09-08T06:00:00Z,28.8425,-94.2433,-2.0,29.0,11111222 
TABS,ioos:station:wmo:42050:1,2003-09-08T06:30:00Z,28.8425,-94.2433,-2.0,28.88,11111222 
TABS,ioos:station:wmo:42050:1,2003-09-08T07:00:00Z,28.8425,-94.2433,-2.0,28.86,11111222 
TABS,ioos:station:wmo:42050:1,2003-09-08T07:30:00Z,28.8425,-94.2433,-2.0,28.85,11111222 
TABS,ioos:station:wmo:42050:1,2003-09-08T08:00:00Z,28.8425,-94.2433,-2.0,28.8,11111222 
TABS,ioos:station:wmo:42050:1,2003-09-08T08:30:00Z,28.8425,-94.2433,-2.0,28.8,11111222 
TABS,ioos:station:wmo:42050:1,2003-09-08T09:00:00Z,28.8425,-94.2433,-2.0,28.8,11111222 
TABS,ioos:station:wmo:42050:1,2003-09-08T09:30:00Z,28.8425,-94.2433,-2.0,28.8,11111222 
TABS,ioos:station:wmo:42050:1,2003-09-08T10:00:00Z,28.8425,-94.2433,-2.0,28.8,11111222 
TABS,ioos:station:wmo:42050:1,2003-09-08T10:30:00Z,28.8425,-94.2433,-2.0,28.8,11111222 
TABS,ioos:station:wmo:42050:1,2003-09-08T11:00:00Z,28.8425,-94.2433,-2.0,28.8,11111222 
TABS,ioos:station:wmo:42050:1,2003-09-08T11:30:00Z,28.8425,-94.2433,-2.0,28.8,11111222 
TABS,ioos:station:wmo:42050:1,2003-09-08T12:00:00Z,28.8425,-94.2433,-2.0,28.8,11111222 
TABS,ioos:station:wmo:42050:1,2003-09-08T12:30:00Z,28.8425,-94.2433,-2.0,28.8,11111222 
TABS,ioos:station:wmo:42050:1,2003-09-08T13:00:00Z,28.8425,-94.2433,-2.0,28.8,11111222 
TABS,ioos:station:wmo:42050:1,2003-09-08T13:30:00Z,28.8425,-94.2433,-2.0,28.8,11111222 
TABS,ioos:station:wmo:42050:1,2003-09-08T14:00:00Z,28.8425,-94.2433,-2.0,28.8,11111222 
TABS,ioos:station:wmo:42050:1,2003-09-08T14:30:00Z,28.8425,-94.2433,-2.0,28.8,11111222 
TABS,ioos:station:wmo:42050:1,2003-09-08T15:00:00Z,28.8425,-94.2433,-2.0,28.8,11111222 
TABS,ioos:station:wmo:42050:1,2003-09-08T15:30:00Z,28.8425,-94.2433,-2.0,28.81,11111222 
TABS,ioos:station:wmo:42050:1,2003-09-08T16:00:00Z,28.8425,-94.2433,-2.0,28.82,11111222 
TABS,ioos:station:wmo:42050:1,2003-09-08T16:30:00Z,28.8425,-94.2433,-2.0,28.8,11111222 
TABS,ioos:station:wmo:42050:1,2003-09-08T17:00:00Z,28.8425,-94.2433,-2.0,28.8,11111222 
TABS,ioos:station:wmo:42050:1,2003-09-08T17:30:00Z,28.8425,-94.2433,-2.0,28.8,11111222 
TABS,ioos:station:wmo:42050:1,2003-09-08T18:00:00Z,28.8425,-94.2433,-2.0,29.0,11111222 
TABS,ioos:station:wmo:42050:1,2003-09-08T18:30:00Z,28.8425,-94.2433,-2.0,29.0,11111222 
TABS,ioos:station:wmo:42050:1,2003-09-08T19:00:00Z,28.8425,-94.2433,-2.0,28.91,11111222 
TABS,ioos:station:wmo:42050:1,2003-09-08T19:30:00Z,28.8425,-94.2433,-2.0,28.95,11111222 
TABS,ioos:station:wmo:42050:1,2003-09-08T20:00:00Z,28.8425,-94.2433,-2.0,29.03,11111222 
TABS,ioos:station:wmo:42050:1,2003-09-08T20:30:00Z,28.8425,-94.2433,-2.0,29.06,11111222 
TABS,ioos:station:wmo:42050:1,2003-09-08T21:00:00Z,28.8425,-94.2433,-2.0,29.08,11111222 
TABS,ioos:station:wmo:42050:1,2003-09-08T21:30:00Z,28.8425,-94.2433,-2.0,29.17,11111222 
TABS,ioos:station:wmo:42050:1,2003-09-08T22:00:00Z,28.8425,-94.2433,-2.0,29.22,11111222 
TABS,ioos:station:wmo:42050:1,2003-09-08T22:30:00Z,28.8425,-94.2433,-2.0,29.3,11111222 
TABS,ioos:station:wmo:42050:1,2003-09-08T23:00:00Z,28.8425,-94.2433,-2.0,29.41,11111222 
TABS,ioos:station:wmo:42050:1,2003-09-08T23:30:00Z,28.8425,-94.2433,-2.0,29.43,11111222 
TABS,ioos:station:wmo:42050:1,2003-09-09T00:00:00Z,28.8425,-94.2433,-2.0,29.5,11111222 
TABS,ioos:station:wmo:42050:1,2003-09-09T00:30:00Z,28.8425,-94.2433,-2.0,29.37,11111222 
TABS,ioos:station:wmo:42050:1,2003-09-09T01:00:00Z,28.8425,-94.2433,-2.0,29.23,11111222 
TABS,ioos:station:wmo:42050:1,2003-09-09T01:30:00Z,28.8425,-94.2433,-2.0,29.09,11111222 
TABS,ioos:station:wmo:42050:1,2003-09-09T02:00:00Z,28.8425,-94.2433,-2.0,29.02,11111222 
TABS,ioos:station:wmo:42050:1,2003-09-09T02:30:00Z,28.8425,-94.2433,-2.0,29.0,11111222 
TABS,ioos:station:wmo:42050:1,2003-09-09T03:00:00Z,28.8425,-94.2433,-2.0,28.94,11111222 
TABS,ioos:station:wmo:42050:1,2003-09-09T03:30:00Z,28.8425,-94.2433,-2.0,28.94,11111222 
TABS,ioos:station:wmo:42050:1,2003-09-09T04:00:00Z,28.8425,-94.2433,-2.0,28.94,11111222 
TABS,ioos:station:wmo:42050:1,2003-09-09T04:30:00Z,28.8425,-94.2433,-2.0,28.93,11111222 
TABS,ioos:station:wmo:42050:1,2003-09-09T05:00:00Z,28.8425,-94.2433,-2.0,28.94,11111222 
TABS,ioos:station:wmo:42050:1,2003-09-09T05:30:00Z,28.8425,-94.2433,-2.0,28.93,11111222 
TABS,ioos:station:wmo:42050:1,2003-09-09T06:00:00Z,28.8425,-94.2433,-2.0,28.97,11111222 
TABS,ioos:station:wmo:42050:1,2003-09-09T06:30:00Z,28.8425,-94.2433,-2.0,28.97,11111222 
TABS,ioos:station:wmo:42050:1,2003-09-09T07:00:00Z,28.8425,-94.2433,-2.0,28.95,11111222 
TABS,ioos:station:wmo:42050:1,2003-09-09T07:30:00Z,28.8425,-94.2433,-2.0,28.93,11111222 
TABS,ioos:station:wmo:42050:1,2003-09-09T08:00:00Z,28.8425,-94.2433,-2.0,28.91,11111222 
TABS,ioos:station:wmo:42050:1,2003-09-09T08:30:00Z,28.8425,-94.2433,-2.0,28.91,11111222 